Time,TemperatureF,DewpointF,PressureIn,WindDirection,WindDirectionDegrees,WindSpeedMPH,WindSpeedGustMPH,Humidity,HourlyPrecipIn,Conditions,Clouds,dailyrainin,SoftwareType,DateUTC
2013-11-18 00:01:00,63.9,30.1,29.47,North,0,0.0,0.0,28,0.00,,BKN,0.00,VWS V14.01,2013-11-18 06:01:00,
2013-11-18 00:06:00,64.0,30.3,29.47,North,0,0.0,0.0,28,0.00,,BKN,0.00,VWS V14.01,2013-11-18 06:06:00,
2013-11-18 00:11:00,64.0,30.3,29.47,North,0,0.0,0.0,28,0.00,,BKN,0.00,VWS V14.01,2013-11-18 06:11:00,
2013-11-18 00:16:00,64.4,28.8,29.47,North,0,0.0,0.0,26,0.00,,BKN,0.00,VWS V14.01,2013-11-18 06:16:00,
2013-11-18 00:21:00,64.4,28.8,29.47,North,0,0.0,0.0,26,0.00,,BKN,0.00,VWS V14.01,2013-11-18 06:21:00,
2013-11-18 00:26:00,64.2,29.6,29.47,North,0,0.0,0.0,27,0.00,,BKN,0.00,VWS V14.01,2013-11-18 06:26:00,
2013-11-18 00:31:00,64.2,29.6,29.47,North,0,0.0,0.0,27,0.00,,BKN,0.00,VWS V14.01,2013-11-18 06:31:00,
2013-11-18 00:37:00,64.2,29.6,29.47,North,0,0.0,0.0,27,0.00,,BKN,0.00,VWS V14.01,2013-11-18 06:37:00,
2013-11-18 00:42:00,64.2,28.6,29.47,North,0,0.0,0.0,26,0.00,,BKN,0.00,VWS V14.01,2013-11-18 06:42:00,
2013-11-18 00:47:00,64.2,28.6,29.47,North,0,0.0,0.0,26,0.00,,BKN,0.00,VWS V14.01,2013-11-18 06:47:00,
2013-11-18 00:52:00,64.2,28.6,29.47,North,0,0.0,0.0,26,0.00,,BKN,0.00,VWS V14.01,2013-11-18 06:52:00,
2013-11-18 00:58:00,64.0,28.5,29.47,North,0,0.0,0.0,26,0.00,,BKN,0.00,VWS V14.01,2013-11-18 06:58:00,
2013-11-18 01:03:00,64.0,28.5,29.47,North,0,0.0,0.0,26,0.00,,BKN,0.00,VWS V14.01,2013-11-18 07:03:00,
2013-11-18 01:08:00,63.9,28.3,29.47,North,0,0.0,0.0,26,0.00,,BKN,0.00,VWS V14.01,2013-11-18 07:08:00,
2013-11-18 01:13:00,63.7,28.2,29.47,North,0,0.0,0.0,26,0.00,,BKN,0.00,VWS V14.01,2013-11-18 07:13:00,
2013-11-18 01:18:00,63.5,28.0,29.47,North,0,0.0,0.0,26,0.00,,BKN,0.00,VWS V14.01,2013-11-18 07:18:00,
2013-11-18 01:23:00,63.5,28.0,29.47,North,0,0.0,0.0,26,0.00,,BKN,0.00,VWS V14.01,2013-11-18 07:23:00,
2013-11-18 01:28:00,63.3,27.9,29.47,North,0,0.0,0.0,26,0.00,,BKN,0.00,VWS V14.01,2013-11-18 07:28:00,
2013-11-18 01:34:00,63.3,27.9,29.47,North,0,0.0,0.0,26,0.00,,BKN,0.00,VWS V14.01,2013-11-18 07:34:00,
2013-11-18 01:39:00,63.3,27.9,29.47,North,0,0.0,0.0,26,0.00,,BKN,0.00,VWS V14.01,2013-11-18 07:39:00,
2013-11-18 01:44:00,63.1,27.7,29.47,North,0,0.0,0.0,26,0.00,,BKN,0.00,VWS V14.01,2013-11-18 07:44:00,
2013-11-18 01:49:00,63.1,26.8,29.47,North,0,0.0,0.0,25,0.00,,BKN,0.00,VWS V14.01,2013-11-18 07:49:00,
2013-11-18 01:54:00,63.1,26.8,29.50,North,0,0.0,0.0,25,0.00,,BKN,0.00,VWS V14.01,2013-11-18 07:54:00,
2013-11-18 01:59:00,63.1,26.8,29.50,North,0,0.0,0.0,25,0.00,,BKN,0.00,VWS V14.01,2013-11-18 07:59:00,
2013-11-18 02:04:00,63.0,26.6,29.50,North,0,0.0,0.0,25,0.00,,BKN,0.00,VWS V14.01,2013-11-18 08:04:00,
2013-11-18 02:10:00,63.0,26.6,29.50,North,0,0.0,0.0,25,0.00,,BKN,0.00,VWS V14.01,2013-11-18 08:10:00,
2013-11-18 02:15:00,63.1,25.8,29.50,North,0,0.0,0.0,24,0.00,,BKN,0.00,VWS V14.01,2013-11-18 08:15:00,
2013-11-18 02:20:00,63.1,25.8,29.50,North,0,0.0,0.0,24,0.00,,BKN,0.00,VWS V14.01,2013-11-18 08:20:00,
2013-11-18 02:25:00,63.0,25.6,29.50,North,0,0.0,0.0,24,0.00,,BKN,0.00,VWS V14.01,2013-11-18 08:25:00,
2013-11-18 02:30:00,62.8,25.5,29.50,North,0,0.0,0.0,24,0.00,,BKN,0.00,VWS V14.01,2013-11-18 08:30:00,
2013-11-18 02:35:00,62.6,25.3,29.50,North,0,0.0,0.0,24,0.00,,BKN,0.00,VWS V14.01,2013-11-18 08:35:00,
2013-11-18 02:40:00,62.4,26.2,29.50,North,0,0.0,0.0,25,0.00,,BKN,0.00,VWS V14.01,2013-11-18 08:40:00,
2013-11-18 02:45:00,62.2,26.0,29.50,North,0,0.0,0.0,25,0.00,,BKN,0.00,VWS V14.01,2013-11-18 08:45:00,
2013-11-18 02:50:00,62.1,25.9,29.50,North,0,0.0,0.0,25,0.00,,BKN,0.00,VWS V14.01,2013-11-18 08:50:00,
2013-11-18 02:56:00,62.1,25.9,29.50,North,0,0.0,0.0,25,0.00,,BKN,0.00,VWS V14.01,2013-11-18 08:56:00,
2013-11-18 03:01:00,62.1,25.9,29.50,North,0,0.0,0.0,25,0.00,,BKN,0.00,VWS V14.01,2013-11-18 09:01:00,
2013-11-18 03:06:00,61.9,25.7,29.50,North,0,0.0,0.0,25,0.00,,BKN,0.00,VWS V14.01,2013-11-18 09:06:00,
2013-11-18 03:11:00,61.9,25.7,29.50,North,0,0.0,0.0,25,0.00,,BKN,0.00,VWS V14.01,2013-11-18 09:11:00,
2013-11-18 03:16:00,61.7,25.5,29.50,North,0,0.0,0.0,25,0.00,,BKN,0.00,VWS V14.01,2013-11-18 09:16:00,
2013-11-18 03:21:00,61.7,25.5,29.50,North,0,0.0,0.0,25,0.00,,BKN,0.00,VWS V14.01,2013-11-18 09:21:00,
2013-11-18 03:26:00,61.5,25.4,29.50,North,0,0.0,0.0,25,0.00,,BKN,0.00,VWS V14.01,2013-11-18 09:26:00,
2013-11-18 03:31:00,61.3,25.2,29.50,North,0,0.0,0.0,25,0.00,,BKN,0.00,VWS V14.01,2013-11-18 09:31:00,
2013-11-18 03:36:00,61.3,25.2,29.50,North,0,0.0,0.0,25,0.00,,BKN,0.00,VWS V14.01,2013-11-18 09:36:00,
2013-11-18 03:41:00,61.2,25.1,29.50,North,0,0.0,0.0,25,0.00,,BKN,0.00,VWS V14.01,2013-11-18 09:41:00,
2013-11-18 03:46:00,61.0,25.9,29.50,North,0,0.0,0.0,26,0.00,,BKN,0.00,VWS V14.01,2013-11-18 09:46:00,
2013-11-18 03:52:00,60.8,25.7,29.53,North,0,0.0,0.0,26,0.00,,BKN,0.00,VWS V14.01,2013-11-18 09:52:00,
2013-11-18 03:57:00,60.6,26.5,29.53,North,0,0.0,0.0,27,0.00,,BKN,0.00,VWS V14.01,2013-11-18 09:57:00,
2013-11-18 04:02:00,60.4,26.3,29.53,North,0,0.0,0.0,27,0.00,,BKN,0.00,VWS V14.01,2013-11-18 10:02:00,
2013-11-18 04:07:00,60.3,26.2,29.53,North,0,0.0,0.0,27,0.00,,BKN,0.00,VWS V14.01,2013-11-18 10:07:00,
2013-11-18 04:12:00,60.1,26.9,29.53,North,0,0.0,0.0,28,0.00,,BKN,0.00,VWS V14.01,2013-11-18 10:12:00,
2013-11-18 04:17:00,60.1,26.9,29.53,North,0,0.0,0.0,28,0.00,,BKN,0.00,VWS V14.01,2013-11-18 10:17:00,
2013-11-18 04:22:00,60.1,26.9,29.53,North,0,0.0,0.0,28,0.00,,BKN,0.00,VWS V14.01,2013-11-18 10:22:00,
2013-11-18 04:27:00,59.9,26.7,29.53,North,0,0.0,0.0,28,0.00,,BKN,0.00,VWS V14.01,2013-11-18 10:27:00,
2013-11-18 04:32:00,59.9,26.7,29.53,North,0,0.0,0.0,28,0.00,,BKN,0.00,VWS V14.01,2013-11-18 10:32:00,
2013-11-18 04:37:00,59.9,26.7,29.53,North,0,0.0,0.0,28,0.00,,BKN,0.00,VWS V14.01,2013-11-18 10:37:00,
2013-11-18 04:42:00,59.9,26.7,29.53,North,0,0.0,0.0,28,0.00,,BKN,0.00,VWS V14.01,2013-11-18 10:42:00,
2013-11-18 04:48:00,59.9,25.9,29.53,North,0,0.0,0.0,27,0.00,,BKN,0.00,VWS V14.01,2013-11-18 10:48:00,
2013-11-18 04:53:00,59.9,25.9,29.53,North,0,0.0,0.0,27,0.00,,BKN,0.00,VWS V14.01,2013-11-18 10:53:00,
2013-11-18 04:58:00,59.7,25.7,29.53,North,0,0.0,0.0,27,0.00,,BKN,0.00,VWS V14.01,2013-11-18 10:58:00,
2013-11-18 05:03:00,59.7,26.6,29.53,North,0,0.0,0.0,28,0.00,,BKN,0.00,VWS V14.01,2013-11-18 11:03:00,
2013-11-18 05:08:00,59.7,26.6,29.53,North,0,0.0,0.0,28,0.00,,BKN,0.00,VWS V14.01,2013-11-18 11:08:00,
2013-11-18 05:13:00,59.5,26.4,29.53,North,0,0.0,0.0,28,0.00,,BKN,0.00,VWS V14.01,2013-11-18 11:13:00,
2013-11-18 05:18:00,59.5,25.5,29.53,North,0,0.0,0.0,27,0.00,,BKN,0.00,VWS V14.01,2013-11-18 11:18:00,
2013-11-18 05:23:00,59.5,25.5,29.53,North,0,0.0,0.0,27,0.00,,BKN,0.00,VWS V14.01,2013-11-18 11:23:00,
2013-11-18 05:28:00,59.4,25.4,29.53,North,0,0.0,0.0,27,0.00,,BKN,0.00,VWS V14.01,2013-11-18 11:28:00,
2013-11-18 05:33:00,59.4,24.5,29.53,North,0,0.0,0.0,26,0.00,,BKN,0.00,VWS V14.01,2013-11-18 11:33:00,
2013-11-18 05:38:00,59.4,24.5,29.56,North,0,0.0,0.0,26,0.00,,BKN,0.00,VWS V14.01,2013-11-18 11:38:00,
2013-11-18 05:43:00,59.4,24.5,29.56,North,0,0.0,0.0,26,0.00,,BKN,0.00,VWS V14.01,2013-11-18 11:43:00,
2013-11-18 05:49:00,59.4,24.5,29.56,North,0,0.0,0.0,26,0.00,,BKN,0.00,VWS V14.01,2013-11-18 11:49:00,
2013-11-18 05:54:00,59.4,24.5,29.56,North,0,0.0,0.0,26,0.00,,BKN,0.00,VWS V14.01,2013-11-18 11:54:00,
2013-11-18 05:59:00,59.4,24.5,29.56,North,0,0.0,0.0,26,0.00,,BKN,0.00,VWS V14.01,2013-11-18 11:59:00,
2013-11-18 06:04:00,59.2,25.2,29.56,North,0,0.0,0.0,27,0.00,,BKN,0.00,VWS V14.01,2013-11-18 12:04:00,
2013-11-18 06:09:00,59.2,25.2,29.56,North,0,0.0,0.0,27,0.00,,BKN,0.00,VWS V14.01,2013-11-18 12:09:00,
2013-11-18 06:14:00,59.0,25.1,29.56,North,0,0.0,0.0,27,0.00,,BKN,0.00,VWS V14.01,2013-11-18 12:14:00,
2013-11-18 06:19:00,59.0,25.1,29.56,North,0,0.0,0.0,27,0.00,,BKN,0.00,VWS V14.01,2013-11-18 12:19:00,
2013-11-18 06:24:00,58.8,24.9,29.56,North,0,0.0,0.0,27,0.00,,BKN,0.00,VWS V14.01,2013-11-18 12:24:00,
2013-11-18 06:29:00,58.5,25.5,29.56,North,0,0.0,0.0,28,0.00,,BKN,0.00,VWS V14.01,2013-11-18 12:29:00,
2013-11-18 06:34:00,58.3,25.3,29.56,North,0,0.0,0.0,28,0.00,,BKN,0.00,VWS V14.01,2013-11-18 12:34:00,
2013-11-18 06:39:00,58.1,26.0,29.56,North,0,0.0,0.0,29,0.00,,BKN,0.00,VWS V14.01,2013-11-18 12:39:00,
2013-11-18 06:44:00,57.9,26.7,29.56,North,0,0.0,0.0,30,0.00,,BKN,0.00,VWS V14.01,2013-11-18 12:44:00,
2013-11-18 06:50:00,57.7,27.3,29.56,North,0,0.0,0.0,31,0.00,,BKN,0.00,VWS V14.01,2013-11-18 12:50:00,
2013-11-18 06:55:00,57.6,28.0,29.56,North,0,0.0,0.0,32,0.00,,BKN,0.00,VWS V14.01,2013-11-18 12:55:00,
2013-11-18 07:00:00,57.4,28.5,29.56,North,0,0.0,0.0,33,0.00,,BKN,0.00,VWS V14.01,2013-11-18 13:00:00,
2013-11-18 07:05:00,57.2,29.1,29.59,North,0,0.0,0.0,34,0.00,,BKN,0.00,VWS V14.01,2013-11-18 13:05:00,
2013-11-18 07:10:00,57.2,29.8,29.59,North,0,0.0,0.0,35,0.00,,BKN,0.00,VWS V14.01,2013-11-18 13:10:00,
2013-11-18 07:15:00,57.0,29.7,29.59,North,0,0.0,0.0,35,0.00,,BKN,0.00,VWS V14.01,2013-11-18 13:15:00,
2013-11-18 07:20:00,57.0,29.7,29.59,North,0,0.0,0.0,35,0.00,,BKN,0.00,VWS V14.01,2013-11-18 13:20:00,
2013-11-18 07:25:00,57.0,30.4,29.59,North,0,0.0,0.0,36,0.00,,BKN,0.00,VWS V14.01,2013-11-18 13:25:00,
2013-11-18 07:30:00,57.0,30.4,29.59,North,0,0.0,0.0,36,0.00,,BKN,0.00,VWS V14.01,2013-11-18 13:30:00,
2013-11-18 07:35:00,57.0,30.4,29.59,North,0,0.0,0.0,36,0.00,,BKN,0.00,VWS V14.01,2013-11-18 13:35:00,
2013-11-18 07:40:00,56.8,30.2,29.59,North,0,0.0,0.0,36,0.00,,BKN,0.00,VWS V14.01,2013-11-18 13:40:00,
2013-11-18 07:46:00,56.8,30.2,29.59,North,0,0.0,0.0,36,0.00,,BKN,0.00,VWS V14.01,2013-11-18 13:46:00,
2013-11-18 07:51:00,56.7,30.7,29.59,North,0,0.0,0.0,37,0.00,,BKN,0.00,VWS V14.01,2013-11-18 13:51:00,
2013-11-18 07:56:00,56.7,30.7,29.59,North,0,0.0,0.0,37,0.00,,BKN,0.00,VWS V14.01,2013-11-18 13:56:00,
2013-11-18 08:01:00,56.8,31.5,29.59,North,0,0.0,0.0,38,0.00,,BKN,0.00,VWS V14.01,2013-11-18 14:01:00,
2013-11-18 08:06:00,56.8,31.5,29.59,North,0,0.0,0.0,38,0.00,,BKN,0.00,VWS V14.01,2013-11-18 14:06:00,
2013-11-18 08:11:00,57.0,31.7,29.59,North,0,0.0,0.0,38,0.00,,BKN,0.00,VWS V14.01,2013-11-18 14:11:00,
2013-11-18 08:16:00,57.2,31.2,29.59,North,0,0.0,0.0,37,0.00,,BKN,0.00,VWS V14.01,2013-11-18 14:16:00,
2013-11-18 08:22:00,57.6,30.8,29.59,North,0,0.0,0.0,36,0.00,,BKN,0.00,VWS V14.01,2013-11-18 14:22:00,
2013-11-18 08:27:00,57.9,31.1,29.59,North,0,0.0,0.0,36,0.00,,BKN,0.00,VWS V14.01,2013-11-18 14:27:00,
2013-11-18 08:32:00,58.3,30.8,29.59,North,0,0.0,0.0,35,0.00,,BKN,0.00,VWS V14.01,2013-11-18 14:32:00,
2013-11-18 08:37:00,58.6,29.6,29.59,North,0,0.0,0.0,33,0.00,,BKN,0.00,VWS V14.01,2013-11-18 14:37:00,
2013-11-18 08:42:00,59.0,29.2,29.59,North,0,0.0,0.0,32,0.00,,BKN,0.00,VWS V14.01,2013-11-18 14:42:00,
2013-11-18 08:47:00,59.4,27.1,29.59,North,0,0.0,0.0,29,0.00,,BKN,0.00,VWS V14.01,2013-11-18 14:47:00,
2013-11-18 08:52:00,59.5,27.3,29.62,North,0,0.0,0.0,29,0.00,,BKN,0.00,VWS V14.01,2013-11-18 14:52:00,
2013-11-18 08:58:00,59.7,26.6,29.62,North,0,0.0,0.0,28,0.00,,BKN,0.00,VWS V14.01,2013-11-18 14:58:00,
2013-11-18 09:03:00,60.1,26.0,29.62,North,0,0.0,0.0,27,0.00,,BKN,0.00,VWS V14.01,2013-11-18 15:03:00,
2013-11-18 09:08:00,60.4,25.4,29.62,North,0,0.0,0.0,26,0.00,,BKN,0.00,VWS V14.01,2013-11-18 15:08:00,
2013-11-18 09:13:00,60.6,25.6,29.62,North,0,0.0,0.0,26,0.00,,BKN,0.00,VWS V14.01,2013-11-18 15:13:00,
2013-11-18 09:18:00,61.2,25.1,29.62,North,0,0.0,0.0,25,0.00,,BKN,0.00,VWS V14.01,2013-11-18 15:18:00,
2013-11-18 09:23:00,61.5,25.4,29.62,North,0,0.0,0.0,25,0.00,,BKN,0.00,VWS V14.01,2013-11-18 15:23:00,
2013-11-18 09:28:00,61.9,25.7,29.62,North,0,0.0,0.0,25,0.00,,BKN,0.00,VWS V14.01,2013-11-18 15:28:00,
2013-11-18 09:33:00,62.2,26.0,29.62,North,0,0.0,0.0,25,0.00,,BKN,0.00,VWS V14.01,2013-11-18 15:33:00,
2013-11-18 09:39:00,62.6,25.3,29.62,North,0,0.0,0.0,24,0.00,,BKN,0.00,VWS V14.01,2013-11-18 15:39:00,
2013-11-18 09:44:00,63.0,25.6,29.62,North,0,0.0,0.0,24,0.00,,BKN,0.00,VWS V14.01,2013-11-18 15:44:00,
2013-11-18 09:49:00,63.3,25.9,29.62,North,0,0.0,0.0,24,0.00,,BKN,0.00,VWS V14.01,2013-11-18 15:49:00,
2013-11-18 09:51:00,63.5,26.1,29.62,North,0,0.0,0.0,24,0.00,,BKN,0.00,VWS V14.01,2013-11-18 15:51:00,
2013-11-18 09:57:00,63.9,26.4,29.62,North,0,0.0,0.0,24,0.00,,BKN,0.00,VWS V14.01,2013-11-18 15:57:00,
2013-11-18 10:02:00,64.0,26.5,29.62,North,0,0.0,0.0,24,0.00,,BKN,0.00,VWS V14.01,2013-11-18 16:02:00,
2013-11-18 10:07:00,64.4,26.9,29.62,North,0,0.0,0.0,24,0.00,,BKN,0.00,VWS V14.01,2013-11-18 16:07:00,
2013-11-18 10:12:00,64.6,27.0,29.62,North,0,0.0,0.0,24,0.00,,BKN,0.00,VWS V14.01,2013-11-18 16:12:00,
2013-11-18 10:17:00,65.3,27.6,29.62,North,0,0.0,0.0,24,0.00,,BKN,0.00,VWS V14.01,2013-11-18 16:17:00,
2013-11-18 10:22:00,65.7,27.9,29.62,North,0,0.0,0.0,24,0.00,,BKN,0.00,VWS V14.01,2013-11-18 16:22:00,
2013-11-18 10:27:00,66.0,28.2,29.62,North,0,0.0,0.0,24,0.00,,BKN,0.00,VWS V14.01,2013-11-18 16:27:00,
2013-11-18 10:33:00,66.2,27.3,29.62,North,0,0.0,0.0,23,0.00,,BKN,0.00,VWS V14.01,2013-11-18 16:33:00,
2013-11-18 10:38:00,66.4,27.5,29.62,North,0,0.0,0.0,23,0.00,,BKN,0.00,VWS V14.01,2013-11-18 16:38:00,
2013-11-18 10:43:00,66.6,27.6,29.62,North,0,0.0,0.0,23,0.00,,BKN,0.00,VWS V14.01,2013-11-18 16:43:00,
2013-11-18 10:48:00,66.7,27.8,29.62,North,0,0.0,0.0,23,0.00,,BKN,0.00,VWS V14.01,2013-11-18 16:48:00,
2013-11-18 10:53:00,66.7,27.8,29.62,North,0,0.0,0.0,23,0.00,,BKN,0.00,VWS V14.01,2013-11-18 16:53:00,
2013-11-18 10:58:00,66.7,27.8,29.62,North,0,0.0,0.0,23,0.00,,BKN,0.00,VWS V14.01,2013-11-18 16:58:00,
2013-11-18 11:04:00,66.9,27.9,29.62,North,0,0.0,0.0,23,0.00,,BKN,0.00,VWS V14.01,2013-11-18 17:04:00,
2013-11-18 11:09:00,67.3,28.2,29.62,North,0,0.0,0.0,23,0.00,,BKN,0.00,VWS V14.01,2013-11-18 17:09:00,
2013-11-18 11:14:00,67.5,28.4,29.62,North,0,0.0,0.0,23,0.00,,BKN,0.00,VWS V14.01,2013-11-18 17:14:00,
2013-11-18 11:19:00,67.6,28.5,29.62,North,0,0.0,0.0,23,0.00,,BKN,0.00,VWS V14.01,2013-11-18 17:19:00,
2013-11-18 11:24:00,68.0,27.8,29.62,North,0,0.0,0.0,22,0.00,,BKN,0.00,VWS V14.01,2013-11-18 17:24:00,
2013-11-18 11:29:00,68.0,27.8,29.62,North,0,0.0,0.0,22,0.00,,BKN,0.00,VWS V14.01,2013-11-18 17:29:00,
2013-11-18 11:34:00,68.4,28.1,29.62,North,0,0.0,0.0,22,0.00,,BKN,0.00,VWS V14.01,2013-11-18 17:34:00,
2013-11-18 11:40:00,68.5,28.2,29.62,North,0,0.0,0.0,22,0.00,,BKN,0.00,VWS V14.01,2013-11-18 17:40:00,
2013-11-18 11:45:00,68.5,28.2,29.62,North,0,0.0,0.0,22,0.00,,BKN,0.00,VWS V14.01,2013-11-18 17:45:00,
2013-11-18 11:50:00,68.7,28.4,29.62,North,0,0.0,0.0,22,0.00,,BKN,0.00,VWS V14.01,2013-11-18 17:50:00,
2013-11-18 11:55:00,68.9,28.5,29.62,North,0,0.0,0.0,22,0.00,,BKN,0.00,VWS V14.01,2013-11-18 17:55:00,
2013-11-18 12:00:00,68.7,28.4,29.62,North,0,0.0,0.0,22,0.00,,BKN,0.00,VWS V14.01,2013-11-18 18:00:00,
2013-11-18 12:05:00,68.4,25.8,29.62,North,0,0.0,0.0,20,0.00,,BKN,0.00,VWS V14.01,2013-11-18 18:05:00,
2013-11-18 12:10:00,68.4,25.8,29.62,North,0,0.0,0.0,20,0.00,,BKN,0.00,VWS V14.01,2013-11-18 18:10:00,
2013-11-18 12:15:00,68.4,28.1,29.62,North,0,0.0,0.0,22,0.00,,BKN,0.00,VWS V14.01,2013-11-18 18:15:00,
2013-11-18 12:21:00,68.2,25.6,29.59,North,0,0.0,0.0,20,0.00,,BKN,0.00,VWS V14.01,2013-11-18 18:21:00,
2013-11-18 12:26:00,68.4,25.8,29.59,North,0,0.0,0.0,20,0.00,,BKN,0.00,VWS V14.01,2013-11-18 18:26:00,
2013-11-18 12:31:00,68.5,25.9,29.59,North,0,0.0,0.0,20,0.00,,BKN,0.00,VWS V14.01,2013-11-18 18:31:00,
2013-11-18 12:36:00,69.1,26.4,29.59,North,0,0.0,0.0,20,0.00,,BKN,0.00,VWS V14.01,2013-11-18 18:36:00,
2013-11-18 12:41:00,68.9,26.2,29.59,North,0,0.0,0.0,20,0.00,,BKN,0.00,VWS V14.01,2013-11-18 18:41:00,
2013-11-18 12:46:00,68.7,28.4,29.59,North,0,0.0,0.0,22,0.00,,BKN,0.00,VWS V14.01,2013-11-18 18:46:00,
2013-11-18 12:51:00,68.4,25.8,29.59,North,0,0.0,0.0,20,0.00,,BKN,0.00,VWS V14.01,2013-11-18 18:51:00,
2013-11-18 12:57:00,68.0,25.5,29.59,North,0,0.0,0.0,20,0.00,,BKN,0.00,VWS V14.01,2013-11-18 18:57:00,
2013-11-18 13:02:00,68.0,25.5,29.59,North,0,0.0,0.0,20,0.00,,BKN,0.00,VWS V14.01,2013-11-18 19:02:00,
2013-11-18 13:07:00,68.4,28.1,29.59,North,0,0.0,0.0,22,0.00,,BKN,0.00,VWS V14.01,2013-11-18 19:07:00,
2013-11-18 13:12:00,69.1,26.4,29.59,North,0,0.0,0.0,20,0.00,,BKN,0.00,VWS V14.01,2013-11-18 19:12:00,
2013-11-18 13:17:00,69.3,26.5,29.59,North,0,0.0,0.0,20,0.00,,BKN,0.00,VWS V14.01,2013-11-18 19:17:00,
2013-11-18 13:22:00,69.3,28.8,29.59,North,0,0.0,0.0,22,0.00,,BKN,0.00,VWS V14.01,2013-11-18 19:22:00,
2013-11-18 13:28:00,69.1,28.7,29.59,North,0,0.0,0.0,22,0.00,,BKN,0.00,VWS V14.01,2013-11-18 19:28:00,
2013-11-18 13:33:00,69.1,26.4,29.59,North,0,0.0,0.0,20,0.00,,BKN,0.00,VWS V14.01,2013-11-18 19:33:00,
2013-11-18 13:38:00,69.3,26.5,29.56,North,0,0.0,0.0,20,0.00,,BKN,0.00,VWS V14.01,2013-11-18 19:38:00,
2013-11-18 13:43:00,69.3,26.5,29.56,North,0,0.0,0.0,20,0.00,,BKN,0.00,VWS V14.01,2013-11-18 19:43:00,
2013-11-18 13:48:00,69.1,26.4,29.56,North,0,0.0,0.0,20,0.00,,BKN,0.00,VWS V14.01,2013-11-18 19:48:00,
2013-11-18 13:53:00,69.1,26.4,29.56,North,0,0.0,0.0,20,0.00,,BKN,0.00,VWS V14.01,2013-11-18 19:53:00,
2013-11-18 13:58:00,69.1,26.4,29.56,North,0,0.0,0.0,20,0.00,,BKN,0.00,VWS V14.01,2013-11-18 19:58:00,
2013-11-18 14:04:00,68.9,26.2,29.56,North,0,0.0,0.0,20,0.00,,BKN,0.00,VWS V14.01,2013-11-18 20:04:00,
2013-11-18 14:09:00,68.9,26.2,29.56,North,0,0.0,0.0,20,0.00,,BKN,0.00,VWS V14.01,2013-11-18 20:09:00,
2013-11-18 14:14:00,68.7,26.1,29.56,North,0,0.0,0.0,20,0.00,,BKN,0.00,VWS V14.01,2013-11-18 20:14:00,
2013-11-18 14:19:00,68.9,26.2,29.56,North,0,0.0,0.0,20,0.00,,BKN,0.00,VWS V14.01,2013-11-18 20:19:00,
2013-11-18 14:24:00,69.1,26.4,29.56,North,0,0.0,0.0,20,0.00,,BKN,0.00,VWS V14.01,2013-11-18 20:24:00,
2013-11-18 14:30:00,69.3,26.5,29.56,North,0,0.0,0.0,20,0.00,,BKN,0.00,VWS V14.01,2013-11-18 20:30:00,
2013-11-18 14:35:00,69.6,26.8,29.56,North,0,0.0,0.0,20,0.00,,BKN,0.00,VWS V14.01,2013-11-18 20:35:00,
2013-11-18 14:40:00,69.6,22.9,29.56,North,0,0.0,0.0,17,0.00,,BKN,0.00,VWS V14.01,2013-11-18 20:40:00,
2013-11-18 14:45:00,69.6,22.9,29.56,North,0,0.0,0.0,17,0.00,,BKN,0.00,VWS V14.01,2013-11-18 20:45:00,
2013-11-18 14:50:00,69.6,22.9,29.56,North,0,0.0,0.0,17,0.00,,BKN,0.00,VWS V14.01,2013-11-18 20:50:00,
2013-11-18 14:55:00,69.4,22.8,29.56,North,0,0.0,0.0,17,0.00,,BKN,0.00,VWS V14.01,2013-11-18 20:55:00,
2013-11-18 15:01:00,69.3,22.6,29.56,North,0,0.0,0.0,17,0.00,,BKN,0.00,VWS V14.01,2013-11-18 21:01:00,
2013-11-18 15:06:00,69.3,22.6,29.56,North,0,0.0,0.0,17,0.00,,BKN,0.00,VWS V14.01,2013-11-18 21:06:00,
2013-11-18 15:11:00,69.3,22.6,29.56,North,0,0.0,0.0,17,0.00,,BKN,0.00,VWS V14.01,2013-11-18 21:11:00,
2013-11-18 15:16:00,69.3,22.6,29.56,North,0,0.0,0.0,17,0.00,,BKN,0.00,VWS V14.01,2013-11-18 21:16:00,
2013-11-18 15:21:00,69.1,22.5,29.56,North,0,0.0,0.0,17,0.00,,BKN,0.00,VWS V14.01,2013-11-18 21:21:00,
2013-11-18 15:26:00,69.1,22.5,29.56,North,0,0.0,0.0,17,0.00,,BKN,0.00,VWS V14.01,2013-11-18 21:26:00,
2013-11-18 15:31:00,69.1,22.5,29.56,North,0,0.0,0.0,17,0.00,,BKN,0.00,VWS V14.01,2013-11-18 21:31:00,
2013-11-18 15:37:00,69.1,22.5,29.56,North,0,0.0,0.0,17,0.00,,BKN,0.00,VWS V14.01,2013-11-18 21:37:00,
2013-11-18 15:42:00,68.9,22.3,29.56,North,0,0.0,0.0,17,0.00,,BKN,0.00,VWS V14.01,2013-11-18 21:42:00,
2013-11-18 15:47:00,68.7,22.2,29.56,North,0,0.0,0.0,17,0.00,,BKN,0.00,VWS V14.01,2013-11-18 21:47:00,
2013-11-18 15:52:00,68.7,22.2,29.56,North,0,0.0,0.0,17,0.00,,BKN,0.00,VWS V14.01,2013-11-18 21:52:00,
2013-11-18 15:57:00,68.9,22.3,29.56,North,0,0.0,0.0,17,0.00,,BKN,0.00,VWS V14.01,2013-11-18 21:57:00,
2013-11-18 16:02:00,68.9,22.3,29.56,North,0,0.0,0.0,17,0.00,,BKN,0.00,VWS V14.01,2013-11-18 22:02:00,
2013-11-18 16:08:00,69.1,22.5,29.56,North,0,0.0,0.0,17,0.00,,BKN,0.00,VWS V14.01,2013-11-18 22:08:00,
2013-11-18 16:13:00,68.9,22.3,29.56,North,0,0.0,0.0,17,0.00,,BKN,0.00,VWS V14.01,2013-11-18 22:13:00,
2013-11-18 16:18:00,68.9,22.3,29.56,North,0,0.0,0.0,17,0.00,,BKN,0.00,VWS V14.01,2013-11-18 22:18:00,
2013-11-18 16:23:00,68.9,22.3,29.56,North,0,0.0,0.0,17,0.00,,BKN,0.00,VWS V14.01,2013-11-18 22:23:00,
2013-11-18 16:28:00,68.9,22.3,29.56,North,0,0.0,0.0,17,0.00,,BKN,0.00,VWS V14.01,2013-11-18 22:28:00,
2013-11-18 16:33:00,68.9,26.2,29.56,North,0,0.0,0.0,20,0.00,,BKN,0.00,VWS V14.01,2013-11-18 22:33:00,
2013-11-18 16:39:00,68.7,26.1,29.56,North,0,0.0,0.0,20,0.00,,BKN,0.00,VWS V14.01,2013-11-18 22:39:00,
2013-11-18 16:44:00,68.7,22.2,29.56,North,0,0.0,0.0,17,0.00,,BKN,0.00,VWS V14.01,2013-11-18 22:44:00,
2013-11-18 16:49:00,68.4,21.9,29.56,North,0,0.0,0.0,17,0.00,,BKN,0.00,VWS V14.01,2013-11-18 22:49:00,
2013-11-18 16:54:00,68.2,21.7,29.59,North,0,0.0,0.0,17,0.00,,BKN,0.00,VWS V14.01,2013-11-18 22:54:00,
2013-11-18 16:59:00,67.8,25.3,29.59,North,0,0.0,0.0,20,0.00,,BKN,0.00,VWS V14.01,2013-11-18 22:59:00,
2013-11-18 17:05:00,67.6,25.2,29.59,North,0,0.0,0.0,20,0.00,,BKN,0.00,VWS V14.01,2013-11-18 23:05:00,
2013-11-18 17:10:00,67.5,21.2,29.59,North,0,0.0,0.0,17,0.00,,BKN,0.00,VWS V14.01,2013-11-18 23:10:00,
2013-11-18 17:15:00,67.1,24.7,29.59,North,0,0.0,0.0,20,0.00,,BKN,0.00,VWS V14.01,2013-11-18 23:15:00,
2013-11-18 17:20:00,66.9,24.6,29.59,North,0,0.0,0.0,20,0.00,,BKN,0.00,VWS V14.01,2013-11-18 23:20:00,
2013-11-18 17:25:00,66.6,24.3,29.59,North,0,0.0,0.0,20,0.00,,BKN,0.00,VWS V14.01,2013-11-18 23:25:00,
2013-11-18 17:30:00,66.4,24.1,29.59,North,0,0.0,0.0,20,0.00,,BKN,0.00,VWS V14.01,2013-11-18 23:30:00,
2013-11-18 17:35:00,66.4,24.1,29.59,North,0,0.0,0.0,20,0.00,,BKN,0.00,VWS V14.01,2013-11-18 23:35:00,
2013-11-18 17:40:00,66.2,24.0,29.59,North,0,0.0,0.0,20,0.00,,BKN,0.00,VWS V14.01,2013-11-18 23:40:00,
2013-11-18 17:45:00,66.0,23.8,29.59,North,0,0.0,0.0,20,0.00,,BKN,0.00,VWS V14.01,2013-11-18 23:45:00,
2013-11-18 17:50:00,66.2,26.3,29.59,North,0,0.0,0.0,22,0.00,,BKN,0.00,VWS V14.01,2013-11-18 23:50:00,
2013-11-18 17:56:00,66.0,27.2,29.59,North,0,0.0,0.0,23,0.00,,BKN,0.00,VWS V14.01,2013-11-18 23:56:00,
2013-11-18 18:01:00,65.8,23.7,29.59,North,0,0.0,0.0,20,0.00,,BKN,0.00,VWS V14.01,2013-11-19 00:01:00,
2013-11-18 18:06:00,65.8,27.0,29.59,North,0,0.0,0.0,23,0.00,,BKN,0.00,VWS V14.01,2013-11-19 00:06:00,
2013-11-18 18:11:00,65.7,26.9,29.59,North,0,0.0,0.0,23,0.00,,BKN,0.00,VWS V14.01,2013-11-19 00:11:00,
2013-11-18 18:16:00,65.5,26.7,29.59,North,0,0.0,0.0,23,0.00,,BKN,0.00,VWS V14.01,2013-11-19 00:16:00,
2013-11-18 18:21:00,65.5,26.7,29.59,North,0,0.0,0.0,23,0.00,,BKN,0.00,VWS V14.01,2013-11-19 00:21:00,
2013-11-18 18:26:00,65.3,26.6,29.59,North,0,0.0,0.0,23,0.00,,BKN,0.00,VWS V14.01,2013-11-19 00:26:00,
2013-11-18 18:31:00,65.1,26.4,29.59,North,0,0.0,0.0,23,0.00,,BKN,0.00,VWS V14.01,2013-11-19 00:31:00,
2013-11-18 18:37:00,65.1,26.4,29.59,North,0,0.0,0.0,23,0.00,,BKN,0.00,VWS V14.01,2013-11-19 00:37:00,
2013-11-18 18:42:00,64.9,26.3,29.59,North,0,0.0,0.0,23,0.00,,BKN,0.00,VWS V14.01,2013-11-19 00:42:00,
2013-11-18 18:47:00,64.8,26.1,29.59,North,0,0.0,0.0,23,0.00,,BKN,0.00,VWS V14.01,2013-11-19 00:47:00,
2013-11-18 18:52:00,64.8,26.1,29.59,North,0,0.0,0.0,23,0.00,,BKN,0.00,VWS V14.01,2013-11-19 00:52:00,
2013-11-18 18:57:00,64.8,26.1,29.59,North,0,0.0,0.0,23,0.00,,BKN,0.00,VWS V14.01,2013-11-19 00:57:00,
2013-11-18 19:02:00,64.8,26.1,29.59,North,0,0.0,0.0,23,0.00,,BKN,0.00,VWS V14.01,2013-11-19 01:02:00,
2013-11-18 19:07:00,64.8,26.1,29.59,North,0,0.0,0.0,23,0.00,,BKN,0.00,VWS V14.01,2013-11-19 01:07:00,
2013-11-18 19:13:00,64.8,26.1,29.59,North,0,0.0,0.0,23,0.00,,BKN,0.00,VWS V14.01,2013-11-19 01:13:00,
2013-11-18 19:18:00,65.3,27.6,29.59,North,0,0.0,0.0,24,0.00,,BKN,0.00,VWS V14.01,2013-11-19 01:18:00,
2013-11-18 19:23:00,65.5,26.7,29.59,North,0,0.0,0.0,23,0.00,,BKN,0.00,VWS V14.01,2013-11-19 01:23:00,
2013-11-18 19:28:00,65.1,26.4,29.59,North,0,0.0,0.0,23,0.00,,BKN,0.00,VWS V14.01,2013-11-19 01:28:00,
2013-11-18 19:33:00,64.9,26.3,29.59,North,0,0.0,0.0,23,0.00,,BKN,0.00,VWS V14.01,2013-11-19 01:33:00,
2013-11-18 19:38:00,64.8,26.1,29.59,North,0,0.0,0.0,23,0.00,,BKN,0.00,VWS V14.01,2013-11-19 01:38:00,
2013-11-18 19:43:00,64.8,26.1,29.59,North,0,0.0,0.0,23,0.00,,BKN,0.00,VWS V14.01,2013-11-19 01:43:00,
2013-11-18 19:45:00,64.8,26.1,29.59,North,0,0.0,0.0,23,0.00,,BKN,0.00,VWS V14.01,2013-11-19 01:45:00,
2013-11-18 19:50:00,64.8,26.1,29.62,North,0,0.0,0.0,23,0.00,,BKN,0.00,VWS V14.01,2013-11-19 01:50:00,
2013-11-18 19:55:00,64.6,26.0,29.62,North,0,0.0,0.0,23,0.00,,BKN,0.00,VWS V14.01,2013-11-19 01:55:00,
2013-11-18 20:00:00,64.4,25.8,29.62,North,0,0.0,0.0,23,0.00,,BKN,0.00,VWS V14.01,2013-11-19 02:00:00,
2013-11-18 20:05:00,64.2,26.7,29.62,North,0,0.0,0.0,24,0.00,,BKN,0.00,VWS V14.01,2013-11-19 02:05:00,
2013-11-18 20:10:00,63.9,26.4,29.62,North,0,0.0,0.0,24,0.00,,BKN,0.00,VWS V14.01,2013-11-19 02:10:00,
2013-11-18 20:15:00,63.7,26.2,29.62,North,0,0.0,0.0,24,0.00,,BKN,0.00,VWS V14.01,2013-11-19 02:15:00,
2013-11-18 20:20:00,63.5,26.1,29.62,North,0,0.0,0.0,24,0.00,,BKN,0.00,VWS V14.01,2013-11-19 02:20:00,
2013-11-18 20:26:00,63.1,25.8,29.62,North,0,0.0,0.0,24,0.00,,BKN,0.00,VWS V14.01,2013-11-19 02:26:00,
2013-11-18 20:31:00,63.1,25.8,29.62,North,0,0.0,0.0,24,0.00,,BKN,0.00,VWS V14.01,2013-11-19 02:31:00,
2013-11-18 20:36:00,63.3,25.9,29.62,North,0,0.0,0.0,24,0.00,,BKN,0.00,VWS V14.01,2013-11-19 02:36:00,
2013-11-18 20:41:00,63.3,25.9,29.62,North,0,0.0,0.0,24,0.00,,BKN,0.00,VWS V14.01,2013-11-19 02:41:00,
2013-11-18 20:46:00,63.3,25.9,29.62,North,0,0.0,0.0,24,0.00,,BKN,0.00,VWS V14.01,2013-11-19 02:46:00,
2013-11-18 20:51:00,63.5,26.1,29.62,North,0,0.0,0.0,24,0.00,,BKN,0.00,VWS V14.01,2013-11-19 02:51:00,
2013-11-18 20:56:00,63.3,25.9,29.62,North,0,0.0,0.0,24,0.00,,BKN,0.00,VWS V14.01,2013-11-19 02:56:00,
2013-11-18 21:02:00,63.1,25.8,29.62,North,0,0.0,0.0,24,0.00,,BKN,0.00,VWS V14.01,2013-11-19 03:02:00,
2013-11-18 21:07:00,63.0,25.6,29.62,North,0,0.0,0.0,24,0.00,,BKN,0.00,VWS V14.01,2013-11-19 03:07:00,
2013-11-18 21:12:00,63.0,25.6,29.62,North,0,0.0,0.0,24,0.00,,BKN,0.00,VWS V14.01,2013-11-19 03:12:00,
2013-11-18 21:17:00,63.0,25.6,29.62,North,0,0.0,0.0,24,0.00,,BKN,0.00,VWS V14.01,2013-11-19 03:17:00,
2013-11-18 21:22:00,62.8,25.5,29.62,North,0,0.0,0.0,24,0.00,,BKN,0.00,VWS V14.01,2013-11-19 03:22:00,
2013-11-18 21:27:00,62.8,26.5,29.62,North,0,0.0,0.0,25,0.00,,BKN,0.00,VWS V14.01,2013-11-19 03:27:00,
2013-11-18 21:32:00,62.6,26.3,29.62,North,0,0.0,0.0,25,0.00,,BKN,0.00,VWS V14.01,2013-11-19 03:32:00,
2013-11-18 21:38:00,62.6,26.3,29.62,North,0,0.0,0.0,25,0.00,,BKN,0.00,VWS V14.01,2013-11-19 03:38:00,
2013-11-18 21:43:00,62.6,26.3,29.62,North,0,0.0,0.0,25,0.00,,BKN,0.00,VWS V14.01,2013-11-19 03:43:00,
2013-11-18 21:48:00,62.6,26.3,29.62,North,0,0.0,0.0,25,0.00,,BKN,0.00,VWS V14.01,2013-11-19 03:48:00,
2013-11-18 21:53:00,62.4,27.1,29.62,North,0,0.0,0.0,26,0.00,,BKN,0.00,VWS V14.01,2013-11-19 03:53:00,
2013-11-18 21:58:00,62.2,27.0,29.62,North,0,0.0,0.0,26,0.00,,BKN,0.00,VWS V14.01,2013-11-19 03:58:00,
2013-11-18 22:03:00,62.2,27.0,29.62,North,0,0.0,0.0,26,0.00,,BKN,0.00,VWS V14.01,2013-11-19 04:03:00,
2013-11-18 22:07:00,62.2,27.0,29.62,North,0,0.0,0.0,26,0.00,,BKN,0.00,VWS V14.01,2013-11-19 04:07:00,
2013-11-18 22:12:00,62.2,27.0,29.62,North,0,0.0,0.0,26,0.00,,BKN,0.00,VWS V14.01,2013-11-19 04:12:00,
2013-11-18 22:17:00,62.2,27.0,29.62,North,0,0.0,0.0,26,0.00,,BKN,0.00,VWS V14.01,2013-11-19 04:17:00,
2013-11-18 22:22:00,62.2,27.9,29.62,North,0,0.0,0.0,27,0.00,,BKN,0.00,VWS V14.01,2013-11-19 04:22:00,
2013-11-18 22:27:00,62.2,27.9,29.62,North,0,0.0,0.0,27,0.00,,BKN,0.00,VWS V14.01,2013-11-19 04:27:00,
2013-11-18 22:32:00,62.1,27.7,29.62,North,0,0.0,0.0,27,0.00,,BKN,0.00,VWS V14.01,2013-11-19 04:32:00,
2013-11-18 22:37:00,62.1,27.7,29.59,North,0,0.0,0.0,27,0.00,,BKN,0.00,VWS V14.01,2013-11-19 04:37:00,
2013-11-18 22:43:00,61.9,28.4,29.59,North,0,0.0,0.0,28,0.00,,BKN,0.00,VWS V14.01,2013-11-19 04:43:00,
2013-11-18 22:48:00,62.1,28.6,29.59,North,0,0.0,0.0,28,0.00,,BKN,0.00,VWS V14.01,2013-11-19 04:48:00,
2013-11-18 22:53:00,62.1,28.6,29.59,North,0,0.0,0.0,28,0.00,,BKN,0.00,VWS V14.01,2013-11-19 04:53:00,
2013-11-18 22:58:00,62.1,28.6,29.59,North,0,0.0,0.0,28,0.00,,BKN,0.00,VWS V14.01,2013-11-19 04:58:00,
2013-11-18 23:01:00,61.9,28.4,29.59,North,0,0.0,0.0,28,0.00,,BKN,0.00,VWS V14.01,2013-11-19 05:01:00,
2013-11-18 23:02:00,61.9,28.4,29.59,North,0,0.0,0.0,28,0.00,,BKN,0.00,VWS V14.01,2013-11-19 05:02:00,
2013-11-18 23:03:00,62.1,28.6,29.59,North,0,0.0,0.0,28,0.00,,BKN,0.00,VWS V14.01,2013-11-19 05:03:00,
2013-11-18 23:04:00,61.9,28.4,29.59,North,0,0.0,0.0,28,0.00,,BKN,0.00,VWS V14.01,2013-11-19 05:04:00,
2013-11-18 23:09:00,61.9,28.4,29.59,North,0,0.0,0.0,28,0.00,,BKN,0.00,VWS V14.01,2013-11-19 05:09:00,
2013-11-18 23:14:00,61.9,29.3,29.59,North,0,0.0,0.0,29,0.00,,BKN,0.00,VWS V14.01,2013-11-19 05:14:00,
2013-11-18 23:19:00,61.9,29.3,29.59,North,0,0.0,0.0,29,0.00,,BKN,0.00,VWS V14.01,2013-11-19 05:19:00,
2013-11-18 23:25:00,61.9,29.3,29.59,North,0,0.0,0.0,29,0.00,,BKN,0.00,VWS V14.01,2013-11-19 05:25:00,
2013-11-18 23:30:00,61.7,29.1,29.59,North,0,0.0,0.0,29,0.00,,BKN,0.00,VWS V14.01,2013-11-19 05:30:00,
2013-11-18 23:35:00,61.7,30.0,29.59,North,0,0.0,0.0,30,0.00,,BKN,0.00,VWS V14.01,2013-11-19 05:35:00,
2013-11-18 23:40:00,61.5,30.6,29.59,North,0,0.0,0.0,31,0.00,,BKN,0.00,VWS V14.01,2013-11-19 05:40:00,
2013-11-18 23:45:00,61.5,30.6,29.59,North,0,0.0,0.0,31,0.00,,BKN,0.00,VWS V14.01,2013-11-19 05:45:00,
2013-11-18 23:50:00,61.5,30.6,29.59,North,0,0.0,0.0,31,0.00,,BKN,0.00,VWS V14.01,2013-11-19 05:50:00,
2013-11-18 23:55:00,61.3,30.5,29.59,North,0,0.0,0.0,31,0.00,,BKN,0.00,VWS V14.01,2013-11-19 05:55:00,